Location: Seasalter
(51.3333°N, 1.0167°E)
Time: 23:26:30
(UTC+00:00)

MSX - Pass Details

Date: 26 September 2023
Orbit: 895 x 904 km, 99.0° (Epoch: 11 December)

Event Time Altitude Azimuth Distance (km) Brightness Sun altitude
Rises 01:48:08 0° 17° (NNE) 3,525 7.9 -33.7°
Reaches altitude 10° 01:50:35 10° 21° (NNE) 2,580 7.0 -33.5°
Enters shadow 01:55:26 55° 64° (ENE) 1,076 4.4 -33.0°
